Location: Clatteringshaws Loch
(55.0508°N, 4.2860°W)
Time: 00:33:52
(UTC+01:00)

Amateur Radio Satellites - All Passes

Search period start: 07 May 2015 00:03
Search period end: 08 May 2015 00:03
Location: Clatteringshaws Loch, 55.0508°N, 4.2860°W

Satellite Date Start Highest point End Downlink Frequencies (MHz)
Time Altitude Azimuth
BEESAT 2 07 May 00:05:21 00:07:53 16° 116° (ESE) 00:10:31 435.950
CUBEBUG 1 07 May 00:07:10 00:11:21 47° 261° (W) 00:15:35 437.445
RS-15 07 May 00:15:43 00:24:21 24° 258° (WSW) 00:32:47 29.354- 29.394
YUBILEINY 07 May 00:17:44 00:22:18 15° 293° (WNW) 00:26:27 435.215
Cosmos 2491 07 May 00:19:11 00:27:20 39° 301° (WNW) 00:35:29 435.465 / 435.565
DUCHIFAT 1 07 May 00:19:20 00:23:31 48° 99° (E) 00:27:42 145.980
DX 1 07 May 00:21:18 00:23:10 12° 276° (W) 00:24:52 434.975-435.025
ITUPSAT 1 07 May 00:29:25 00:33:08 23° 56° (ENE) 00:36:56 437.325
POLYITAN 1 07 May 00:33:50 00:38:11 68° 103° (ESE) 00:42:30 437.675
SPROUT 07 May 00:39:22 00:43:39 71° 257° (WSW) 00:47:59 437.525
VELOX 1 07 May 00:40:08 00:42:54 16° 274° (W) 00:45:33 145.980
TIGRISAT 07 May 00:40:32 00:45:13 64° 290° (WNW) 00:49:46 435.000
AIST 2 07 May 00:45:04 00:47:18 14° 114° (ESE) 00:49:42 435.215
QB50P1 07 May 00:45:07 00:49:27 83° 105° (ESE) 00:53:46 145.935-145.965
GONETS M04 07 May 00:46:13 00:53:06 25° 46° (NE) 01:00:09
Cosmos 2504 07 May 00:47:37 00:55:15 55° 269° (W) 01:02:22 435.465 / 435.565
ESTCUBE 1 07 May 00:47:49 00:51:19 21° 270° (W) 00:54:45 437.505/2401.250
UNISAT 6 07 May 00:50:38 00:55:12 52° 292° (WNW) 00:59:40 437.425
BEESAT 07 May 00:51:31 00:55:45 33° 61° (ENE) 01:00:02 436.000
BUGSAT 1 07 May 00:52:07 00:56:20 71° 103° (ESE) 01:00:34 437.445
SWISSCUBE 07 May 00:56:00 01:00:22 37° 63° (ENE) 01:04:46 437.505
TISAT 1 07 May 00:57:05 01:01:15 59° 258° (WSW) 01:05:28 437.305
AIST 1 07 May 01:01:00 01:05:01 39° 290° (WNW) 01:09:03
CUSAT 1 07 May 01:05:18 01:11:52 28° 50° (NE) 01:18:50 437.405
QB50P2 07 May 01:15:57 01:20:10 53° 291° (WNW) 01:24:23 145.880/145.840
BEESAT 3 07 May 01:23:38 01:27:44 72° 133° (SE) 01:31:53 437.485
DANDE 07 May 01:23:49 01:30:29 29° 52° (NE) 01:37:47 436.750
NANOSAT C BR1 07 May 01:25:12 01:29:20 46° 293° (WNW) 01:33:27 145.865
Oscar 19 07 May 01:31:52 01:34:59 16° 84° (E) 01:38:15 437.125/150
ANTELSAT 07 May 01:33:37 01:37:33 26° 301° (WNW) 01:41:21 437.575/2403.000
POPSAT HIP 1 07 May 01:34:20 01:38:22 39° 295° (WNW) 01:42:22 437.405
BEESAT 2 07 May 01:41:16 01:45:25 83° 137° (SE) 01:49:37 435.950
DUCHIFAT 1 07 May 01:55:29 01:59:10 27° 299° (WNW) 02:02:47 145.980
ITUPSAT 1 07 May 02:05:52 02:10:39 71° 256° (WSW) 02:15:27 437.325
POLYITAN 1 07 May 02:10:24 02:13:43 21° 302° (WNW) 02:16:59 437.675
KKS-1 07 May 02:16:33 02:20:42 39° 65° (ENE) 02:24:55 437.445
TIGRISAT 07 May 02:18:37 02:21:10 14° 310° (NW) 02:23:33 435.000
SPROUT 07 May 02:19:18 02:20:39 11° 278° (W) 02:21:49 437.525
AIST 2 07 May 02:20:58 02:25:15 72° 133° (SE) 02:29:33 435.215
QB50P1 07 May 02:21:52 02:24:50 18° 304° (NW) 02:27:43 145.935-145.965
Cosmos 2491 07 May 02:22:47 02:27:34 15° 331° (NNW) 02:32:06 435.465 / 435.565
BUGSAT 1 07 May 02:28:19 02:31:25 20° 302° (WNW) 02:34:28 437.445
BEESAT 07 May 02:28:53 02:33:30 46° 261° (W) 02:38:07 436.000
UNISAT 6 07 May 02:29:08 02:31:03 12° 312° (NW) 02:32:48 437.425
SWISSCUBE 07 May 02:33:43 02:38:13 40° 263° (W) 02:42:44 437.505
ITAMSAT 1 07 May 02:33:56 02:37:20 18° 86° (E) 02:40:53 435.822/435.867
Cosmos 2499 07 May 02:36:30 02:41:43 19° 43° (NE) 02:46:53 435.465 / 435.565
Gurwin Techsat 1B 07 May 02:36:51 02:40:21 18° 85° (E) 02:43:59 435.225
MOZHAYETS 4 07 May 02:40:39 02:41:23 10° 46° (NE) 02:42:16
STARS 07 May 02:40:47 02:44:58 43° 66° (ENE) 02:49:13 437.465
GONETS M04 07 May 02:43:00 02:51:54 72° 74° (ENE) 03:00:43
Cosmos 2504 07 May 02:43:13 02:46:53 14° 292° (WNW) 02:50:06 435.465 / 435.565
CUSAT 1 07 May 02:47:49 02:55:57 76° 73° (ENE) 03:04:14 437.405
QB50P2 07 May 02:53:50 02:55:14 11° 311° (NW) 02:56:28 145.880/145.840
O/OREOS (USA 219) 07 May 02:58:12 02:59:56 12° 19° (NNE) 03:01:43 437.305
BEESAT 3 07 May 03:02:18 03:06:04 33° 335° (NNW) 03:09:51 437.485
DANDE 07 May 03:06:51 03:14:58 80° 74° (ENE) 03:23:36 436.750
Oscar 19 07 May 03:10:00 03:15:16 81° 107° (ESE) 03:20:29 437.125/150
BEESAT 2 07 May 03:20:13 03:23:57 31° 337° (NNW) 03:27:41 435.950
ITUPSAT 1 07 May 03:47:20 03:49:31 13° 277° (W) 03:51:31 437.325
KKS-1 07 May 03:53:19 03:57:26 34° 265° (W) 04:01:31 437.445
JAS-2 07 May 03:56:19 03:59:56 17° 80° (E) 04:03:32 435.910
AIST 2 07 May 04:00:14 04:04:10 34° 335° (NNW) 04:08:07 435.215
ITAMSAT 1 07 May 04:12:25 04:17:39 89° 105° (ESE) 04:22:53 435.822/435.867
MOZHAYETS 4 07 May 04:13:13 04:17:37 45° 66° (ENE) 04:22:02
Gurwin Techsat 1B 07 May 04:15:50 04:21:12 88° 102° (ESE) 04:26:32 435.225
STARS 07 May 04:17:38 04:21:35 31° 266° (W) 04:25:32 437.465
HORYU 2 07 May 04:24:49 04:28:41 28° 93° (E) 04:32:36 437.375
Cosmos 2499 07 May 04:29:15 04:36:51 62° 71° (ENE) 04:43:58 435.465 / 435.565
CUSAT 1 07 May 04:31:00 04:38:16 37° 273° (W) 04:45:29 437.405
AO-7 07 May 04:35:22 04:42:39 33° 92° (E) 04:50:05 29.400- 29.500
O/OREOS (USA 219) 07 May 04:36:48 04:40:50 31° 43° (NE) 04:44:51 437.305
GONETS M04 07 May 04:40:23 04:48:15 37° 277° (W) 04:55:56
BEESAT 3 07 May 04:41:54 04:45:07 21° 358° (N) 04:48:19 437.485
M-CUBED/EXP-1 PRIME 07 May 04:42:31 04:45:34 18° 48° (NE) 04:48:36 437.505
Oscar 19 07 May 04:50:02 04:54:08 23° 306° (NW) 04:58:08 437.125/150
CUBESAT XI-V 07 May 04:50:04 04:52:39 15° 52° (NE) 04:55:22 437.345
DANDE 07 May 04:50:36 04:57:47 35° 274° (W) 05:05:10 436.750
BEESAT 2 07 May 04:59:54 05:03:08 21° 0° (N) 05:06:22 435.950
STRAND 1 07 May 05:06:06 05:08:51 15° 47° (NE) 05:11:43 437.568
AUBIESAT-1 07 May 05:11:59 05:15:42 25° 53° (NE) 05:19:19 437.475
PCSat 07 May 05:24:20 05:27:04 14° 106° (ESE) 05:30:01 145.827
JAS-2 07 May 05:40:15 05:46:21 82° 104° (ESE) 05:51:48 435.910
AIST 2 07 May 05:40:24 05:43:49 22° 358° (N) 05:47:12 435.215
MOZHAYETS 4 07 May 05:50:52 05:55:01 31° 267° (W) 05:59:07
ITAMSAT 1 07 May 05:52:42 05:56:37 22° 307° (NW) 06:00:26 435.822/435.867
Gurwin Techsat 1B 07 May 05:56:33 06:00:38 22° 307° (NW) 06:04:37 435.225
HORYU 2 07 May 06:01:13 06:05:34 47° 294° (WNW) 06:09:51 437.375
M-CUBED/EXP-1 PRIME 07 May 06:15:08 06:19:53 76° 66° (ENE) 06:24:23 437.505
O/OREOS (USA 219) 07 May 06:16:07 06:20:32 54° 245° (WSW) 06:24:53 437.305
BEESAT 3 07 May 06:20:33 06:24:12 29° 21° (NNE) 06:27:50 437.485
PRISM 07 May 06:22:16 06:26:12 44° 67° (ENE) 06:30:09 437.425
Cosmos 2499 07 May 06:22:53 06:29:39 36° 276° (W) 06:35:58 435.465 / 435.565
CUBESAT XI-V 07 May 06:24:49 06:29:24 73° 72° (ENE) 06:34:02 437.345
Cosmos 2491 07 May 06:25:34 06:31:25 19° 38° (NE) 06:37:31 435.465 / 435.565
AO-7 07 May 06:28:00 06:36:22 79° 295° (WNW) 06:44:43 29.400- 29.500
BEESAT 2 07 May 06:38:32 06:42:18 31° 24° (NNE) 06:46:02 435.950
STRAND 1 07 May 06:42:10 06:47:11 60° 68° (ENE) 06:52:14 437.568
AUBIESAT-1 07 May 06:45:29 06:50:11 70° 250° (WSW) 06:54:39 437.475
CUTE-I 07 May 06:55:54 07:00:28 29° 92° (E) 07:05:05 437.470
PCSat 07 May 07:04:15 07:09:36 65° 126° (SE) 07:15:01 145.827
Cubesat XI-IV 07 May 07:09:18 07:14:11 35° 95° (E) 07:19:06 437.490
AIST 2 07 May 07:19:40 07:23:30 30° 22° (NNE) 07:27:18 435.215
JAS-2 07 May 07:25:56 07:30:51 25° 309° (NW) 07:35:17 435.910
HORYU 2 07 May 07:40:05 07:41:16 11° 314° (NW) 07:42:17 437.375
YUBILEINY 07 May 07:45:03 07:45:49 10° 61° (ENE) 07:47:09 435.215
M-CUBED/EXP-1 PRIME 07 May 07:51:37 07:55:10 20° 264° (W) 07:58:31 437.505
PRISM 07 May 07:58:20 08:01:51 26° 266° (W) 08:05:20 437.425
BEESAT 3 07 May 07:58:32 08:02:41 89° 42° (NE) 08:06:47 437.485
CUBESAT XI-V 07 May 08:04:03 08:07:25 19° 273° (W) 08:10:41 437.345
HO-68 07 May 08:12:48 08:15:41 13° 76° (ENE) 08:18:58 435.675
BEESAT 2 07 May 08:16:37 08:20:48 79° 226° (SW) 08:24:54 435.950
AO-7 07 May 08:21:16 08:28:14 31° 319° (NW) 08:35:05 29.400- 29.500
Cosmos 2491 07 May 08:22:17 08:30:56 54° 67° (ENE) 08:39:34 435.465 / 435.565
STRAND 1 07 May 08:22:27 08:26:47 27° 268° (W) 08:31:05 437.568
AUBIESAT-1 07 May 08:23:36 08:25:43 13° 269° (W) 08:27:37 437.475
CUTE-I 07 May 08:35:41 08:40:57 60° 293° (WNW) 08:46:12 437.470
TIGRISAT 07 May 08:37:14 08:38:18 11° 46° (NE) 08:39:33 435.000
UNISAT 6 07 May 08:46:20 08:48:19 13° 48° (NE) 08:50:27 437.425
PCSat 07 May 08:48:13 08:53:21 41° 328° (NNW) 08:58:30 145.827
Cubesat XI-IV 07 May 08:49:21 08:54:29 49° 296° (WNW) 08:59:36 437.490
DOVE 4 07 May 08:55:37 08:59:21 20° 85° (E) 09:03:14 437.250
AIST 2 07 May 08:58:15 09:02:34 88° 225° (SW) 09:06:47 435.215
BRITE-PL 07 May 08:59:29 09:04:30 39° 95° (E) 09:09:46 437.365/2234.400
CANX-2 07 May 09:02:11 09:05:07 18° 88° (E) 09:08:09 2200.000
CUTE 1.7 + AOD 2 07 May 09:09:14 09:12:18 19° 88° (E) 09:15:27 437.475
NANOSAT C BR1 07 May 09:17:06 09:17:58 11° 48° (NE) 09:18:58 145.865
GOMX 1 07 May 09:19:56 09:24:56 39° 95° (E) 09:30:06 467.674
COMPASS 1 07 May 09:21:51 09:24:41 18° 88° (E) 09:27:36 437.405
AIST 1 07 May 09:23:16 09:26:18 19° 60° (ENE) 09:29:26
ISS 07 May 09:24:25 09:27:05 24° 156° (SSE) 09:29:48 145.825
POPSAT HIP 1 07 May 09:25:22 09:27:05 12° 50° (NE) 09:28:55 437.405
ANTELSAT 07 May 09:26:46 09:30:25 23° 57° (ENE) 09:34:11 437.575/2403.000
Oscar 11 07 May 09:30:11 09:30:37 10° 81° (E) 09:31:17 145.826/435.025
YUBILEINY 07 May 09:32:18 09:40:15 41° 85° (E) 09:48:18 435.215
SO-50 07 May 09:34:21 09:38:42 37° 124° (SE) 09:43:13 436.795
BEESAT 3 07 May 09:37:22 09:40:11 18° 243° (WSW) 09:42:55 437.485
CINEMA 3 07 May 09:43:04 09:47:11 25° 89° (E) 09:51:20 145.822/145.860
DUCHIFAT 1 07 May 09:44:49 09:47:28 17° 55° (NE) 09:50:13 145.980
AAUSAT CUBESAT 2 07 May 09:53:04 09:56:43 29° 93° (E) 10:00:23 437.432
UWE-3 07 May 09:53:18 09:55:47 14° 83° (E) 09:58:24 435.000/436.395/437.385
CUBEBUG 2 07 May 09:53:50 09:56:59 18° 85° (E) 10:00:12 437.445
BEESAT 2 07 May 09:55:50 09:58:18 15° 245° (WSW) 10:00:38 435.950
HO-68 07 May 09:58:19 10:05:22 54° 100° (E) 10:12:22 435.675
POLYITAN 1 07 May 09:59:12 10:02:27 22° 58° (ENE) 10:05:48 437.675
ZACube-1 07 May 09:59:30 10:01:35 13° 82° (E) 10:03:50 437.345
SEEDS 07 May 10:06:56 10:11:05 51° 99° (E) 10:15:12 437.485
TIGRISAT 07 May 10:09:34 10:14:02 45° 66° (ENE) 10:18:33 435.000
QB50P1 07 May 10:09:53 10:13:22 25° 60° (ENE) 10:16:56 145.935-145.965
AO-7 07 May 10:13:59 10:18:32 16° 346° (NNW) 10:23:01 29.400- 29.500
BUGSAT 1 07 May 10:15:03 10:18:03 21° 58° (ENE) 10:21:09 437.445
CUTE-I 07 May 10:16:59 10:20:08 16° 313° (NW) 10:23:10 437.470
Cosmos 2491 07 May 10:19:27 10:27:54 51° 271° (W) 10:36:15 435.465 / 435.565
UNISAT 6 07 May 10:19:38 10:24:13 54° 68° (ENE) 10:28:51 437.425
DX 1 07 May 10:24:45 10:26:17 12° 83° (E) 10:28:01 434.975-435.025
Cubesat XI-IV 07 May 10:31:00 10:33:32 13° 317° (NW) 10:35:54 437.490
DOVE 4 07 May 10:32:30 10:37:49 87° 287° (WNW) 10:43:10 437.250
PCSat 07 May 10:33:45 10:38:08 24° 353° (N) 10:42:30 145.827
CANX-2 07 May 10:37:17 10:41:33 69° 289° (WNW) 10:45:46 2200.000
AIST 2 07 May 10:37:41 10:40:36 18° 244° (WSW) 10:43:25 435.215
BRITE-PL 07 May 10:38:00 10:43:08 47° 294° (WNW) 10:48:29 437.365/2234.400
QB50P2 07 May 10:40:03 10:44:05 44° 67° (ENE) 10:48:12 145.880/145.840
CUTE 1.7 + AOD 2 07 May 10:44:26 10:48:41 64° 289° (WNW) 10:52:53 437.475
VELOX 1 07 May 10:47:20 10:47:54 10° 81° (E) 10:48:41 145.980
UKube-1 07 May 10:48:21 10:51:17 18° 88° (E) 10:54:18 .
NANOSAT C BR1 07 May 10:48:49 10:52:56 51° 68° (ENE) 10:57:06 145.865
COMPASS 1 07 May 10:56:40 11:00:52 68° 288° (WNW) 11:05:01 437.405
POPSAT HIP 1 07 May 10:57:59 11:02:11 61° 70° (ENE) 11:06:26 437.405
GOMX 1 07 May 10:58:04 11:03:09 46° 294° (WNW) 11:08:22 467.674
ISS 07 May 10:59:53 11:03:00 44° 175° (S) 11:06:09 145.825
AIST 1 07 May 11:00:12 11:04:30 70° 261° (W) 11:08:46
ANTELSAT 07 May 11:02:06 11:06:48 71° 257° (WSW) 11:11:34 437.575/2403.000
Oscar 11 07 May 11:03:26 11:07:48 65° 102° (ESE) 11:12:05 145.826/435.025
FUNcube-1 07 May 11:03:28 11:07:51 42° 97° (E) 11:12:10 145.935
50 SAT 07 May 11:04:59 11:07:16 15° 86° (E) 11:09:38 437.505
AISAT 07 May 11:08:32 11:11:23 17° 87° (E) 11:14:22 437.250
SO-50 07 May 11:14:23 11:19:08 59° 326° (NW) 11:24:02 436.795
DELFI C3 07 May 11:15:04 11:19:06 66° 102° (ESE) 11:23:06 145.870
DUCHIFAT 1 07 May 11:18:29 11:22:44 89° 76° (ENE) 11:27:02 145.980
CINEMA 3 07 May 11:19:47 11:24:49 65° 289° (WNW) 11:29:47 145.822/145.860
Oscar 19 07 May 11:19:52 11:21:51 12° 43° (NE) 11:24:00 437.125/150
HUMSAT D 07 May 11:21:07 11:25:02 32° 94° (E) 11:28:55 437.325/437.525
YUBILEINY 07 May 11:28:02 11:36:49 64° 289° (WNW) 11:45:33 435.215
UWE-3 07 May 11:28:24 11:33:10 82° 104° (ESE) 11:37:48 435.000/436.395/437.385
AAUSAT CUBESAT 2 07 May 11:28:31 11:32:29 41° 293° (WNW) 11:36:22 437.432
CUBEBUG 2 07 May 11:29:32 11:34:22 85° 285° (WNW) 11:39:06 437.445
POLYITAN 1 07 May 11:33:45 11:38:01 65° 258° (WSW) 11:42:19 437.675
ZACube-1 07 May 11:34:12 11:38:51 77° 104° (ESE) 11:43:23 437.345
Cosmos 2504 07 May 11:41:30 11:48:36 30° 81° (E) 11:55:36 435.465 / 435.565
SEEDS 07 May 11:43:09 11:46:40 25° 299° (WNW) 11:50:06 437.485
QB50P1 07 May 11:44:51 11:49:01 52° 260° (W) 11:53:14 145.935-145.965
HO-68 07 May 11:46:17 11:53:06 47° 303° (WNW) 11:59:51 435.675
TIGRISAT 07 May 11:46:40 11:50:55 33° 266° (W) 11:55:10 435.000
BUGSAT 1 07 May 11:49:09 11:53:10 64° 258° (WSW) 11:57:16 437.445
CUBEBUG 1 07 May 11:49:09 11:52:25 20° 89° (E) 11:55:46 437.445
UNISAT 6 07 May 11:57:18 12:01:18 27° 269° (W) 12:05:17 437.425
DX 1 07 May 11:59:00 12:03:25 74° 104° (ESE) 12:07:48 434.975-435.025
AO-7 07 May 12:03:42 12:08:08 16° 14° (NNE) 12:12:40 29.400- 29.500
DOVE 4 07 May 12:11:03 12:14:58 21° 305° (NW) 12:18:51 437.250
CANX-2 07 May 12:14:40 12:16:47 13° 308° (NW) 12:18:46 2200.000
QB50P2 07 May 12:16:27 12:20:10 28° 267° (W) 12:23:53 145.880/145.840
BRITE-PL 07 May 12:18:13 12:20:38 13° 313° (NW) 12:22:55 437.365/2234.400
PCSat 07 May 12:18:29 12:23:09 28° 19° (NNE) 12:27:50 145.827
Cosmos 2491 07 May 12:18:37 12:22:42 14° 295° (WNW) 12:26:18 435.465 / 435.565
SPROUT 07 May 12:20:13 12:22:22 14° 84° (E) 12:24:40 437.525
VELOX 1 07 May 12:21:00 12:25:28 63° 102° (ESE) 12:29:55 145.980
CUTE 1.7 + AOD 2 07 May 12:21:56 12:23:51 13° 309° (NW) 12:25:40 437.475
ITAMSAT 1 07 May 12:22:32 12:25:01 14° 45° (NE) 12:27:39 435.822/435.867
UKube-1 07 May 12:23:36 12:27:58 73° 289° (WNW) 12:32:18 .
NANOSAT C BR1 07 May 12:25:32 12:29:04 24° 269° (W) 12:32:33 145.865
Gurwin Techsat 1B 07 May 12:28:08 12:30:47 14° 45° (NE) 12:33:34 435.225
ESTCUBE 1 07 May 12:31:47 12:36:12 50° 100° (E) 12:40:35 437.505/2401.250
COMPASS 1 07 May 12:33:51 12:35:52 13° 308° (NW) 12:37:44 437.405
POPSAT HIP 1 07 May 12:35:13 12:38:28 21° 270° (W) 12:41:41 437.405
RS-15 07 May 12:35:27 12:44:52 37° 110° (ESE) 12:54:44 29.354- 29.394
TISAT 1 07 May 12:35:35 12:37:55 15° 86° (E) 12:40:23 437.305
ISS 07 May 12:36:00 12:39:03 36° 194° (SSW) 12:42:04 145.825
GOMX 1 07 May 12:37:56 12:40:13 13° 314° (NW) 12:42:22 467.674
50 SAT 07 May 12:38:35 12:42:38 78° 287° (WNW) 12:46:37 437.505
FUNcube-1 07 May 12:39:57 12:44:07 34° 297° (WNW) 12:48:10 145.935
Oscar 11 07 May 12:40:15 12:43:37 22° 302° (WNW) 12:46:54 145.826/435.025
AIST 1 07 May 12:40:29 12:41:24 10° 280° (W) 12:42:07
ANTELSAT 07 May 12:42:25 12:44:33 13° 278° (W) 12:46:30 437.575/2403.000
AISAT 07 May 12:44:06 12:48:37 81° 288° (WNW) 12:53:07 437.250
DELFI C3 07 May 12:50:54 12:53:52 20° 302° (WNW) 12:56:45 145.870
Oscar 19 07 May 12:55:11 13:00:06 46° 64° (ENE) 13:05:06 437.125/150
SO-50 07 May 12:56:16 13:00:33 29° 349° (N) 13:04:53 436.795
HUMSAT D 07 May 12:56:48 13:00:52 39° 294° (WNW) 13:04:51 437.325/437.525
DUCHIFAT 1 07 May 12:56:55 12:59:15 14° 275° (W) 13:01:29 145.980
CINEMA 3 07 May 12:58:11 13:01:11 16° 310° (NW) 13:04:03 145.822/145.860
UWE-3 07 May 13:05:42 13:09:10 20° 304° (NW) 13:12:32 435.000/436.395/437.385
CUBEBUG 2 07 May 13:07:09 13:10:26 18° 306° (NW) 13:13:35 437.445
ZACube-1 07 May 13:11:16 13:14:44 21° 303° (WNW) 13:18:05 437.345
POLYITAN 1 07 May 13:14:30 13:14:54 10° 279° (W) 13:15:05 437.675
CUBEBUG 1 07 May 13:24:51 13:29:13 64° 290° (WNW) 13:33:36 437.445
YUBILEINY 07 May 13:29:11 13:35:50 22° 317° (NW) 13:42:15 435.215
Cosmos 2504 07 May 13:32:32 13:41:21 84° 283° (WNW) 13:49:42 435.465 / 435.565
HO-68 07 May 13:34:50 13:39:19 18° 326° (NW) 13:43:38 435.675
DX 1 07 May 13:35:58 13:39:16 21° 304° (WNW) 13:42:27 434.975-435.025
AO-7 07 May 13:51:39 13:58:26 30° 41° (NE) 14:05:22 29.400- 29.500
SPROUT 07 May 13:54:49 13:59:12 86° 105° (ESE) 14:03:33 437.525
HORYU 2 07 May 13:56:09 13:58:17 14° 50° (NE) 14:00:33 437.375
VELOX 1 07 May 13:58:08 14:01:43 23° 302° (WNW) 14:05:13 145.980
ITAMSAT 1 07 May 13:58:32 14:03:33 53° 66° (ENE) 14:08:36 435.822/435.867
ITUPSAT 1 07 May 13:59:59 14:03:15 19° 87° (E) 14:06:39 437.325
GONETS M04 07 May 14:00:56 14:06:01 18° 70° (ENE) 14:11:30
UKube-1 07 May 14:00:59 14:03:27 15° 308° (NW) 14:05:48 .
PCSat 07 May 14:02:05 14:07:31 65° 43° (NE) 14:12:56 145.827
Gurwin Techsat 1B 07 May 14:04:37 14:09:46 53° 66° (ENE) 14:14:58 435.225
ESTCUBE 1 07 May 14:09:02 14:12:53 28° 300° (WNW) 14:16:42 437.505/2401.250
TISAT 1 07 May 14:10:04 14:14:22 88° 286° (WNW) 14:18:40 437.305
ISS 07 May 14:12:55 14:14:47 14° 213° (SSW) 14:16:36 145.825
50 SAT 07 May 14:14:41 14:16:47 14° 306° (NW) 14:18:47 437.505
JAS-2 07 May 14:15:06 14:20:49 26° 52° (NE) 14:26:12 435.910
AISAT 07 May 14:21:45 14:24:36 17° 307° (NW) 14:27:21 437.250
BEESAT 07 May 14:21:53 14:25:58 28° 93° (E) 14:30:03 436.000
CUSAT 1 07 May 14:26:17 14:27:37 11° 68° (ENE) 14:29:23 437.405
SWISSCUBE 07 May 14:26:32 14:30:47 32° 94° (E) 14:35:05 437.505
Oscar 19 07 May 14:34:49 14:39:36 37° 265° (W) 14:44:26 437.125/150
SO-50 07 May 14:37:58 14:42:18 30° 13° (NNE) 14:46:42 436.795
RS-15 07 May 14:45:13 14:56:11 89° 320° (NW) 15:07:37 29.354- 29.394
DANDE 07 May 14:48:35 14:50:20 12° 69° (ENE) 14:52:32 436.750
CUBEBUG 1 07 May 15:02:42 15:04:51 13° 309° (NW) 15:06:53 437.445
Cosmos 2504 07 May 15:28:49 15:36:08 28° 307° (NW) 15:42:57 435.465 / 435.565
Cosmos 2499 07 May 15:29:16 15:30:18 10° 65° (ENE) 15:31:49 435.465 / 435.565
HORYU 2 07 May 15:29:42 15:34:09 62° 69° (ENE) 15:38:39 437.375
SPROUT 07 May 15:31:49 15:34:47 18° 305° (NW) 15:37:39 437.525
YUBILEINY 07 May 15:36:13 15:37:14 10° 349° (N) 15:38:08 435.215
KKS-1 07 May 15:36:54 15:40:50 29° 94° (E) 15:44:48 437.445
ITUPSAT 1 07 May 15:37:00 15:41:48 80° 288° (WNW) 15:46:34 437.325
ITAMSAT 1 07 May 15:38:44 15:43:20 31° 266° (W) 15:47:55 435.822/435.867
AO-7 07 May 15:42:00 15:50:17 79° 64° (ENE) 15:58:37 29.400- 29.500
Gurwin Techsat 1B 07 May 15:45:16 15:50:02 32° 267° (W) 15:54:47 435.225
PCSat 07 May 15:45:52 15:50:42 33° 244° (WSW) 15:55:28 145.827
TISAT 1 07 May 15:46:52 15:49:37 16° 306° (NW) 15:52:14 437.305
GONETS M04 07 May 15:52:35 16:01:11 62° 93° (E) 16:09:54
JAS-2 07 May 15:57:40 16:05:13 82° 71° (ENE) 16:12:01 435.910
BEESAT 07 May 15:59:27 16:04:06 53° 293° (WNW) 16:08:43 436.000
STARS 07 May 15:59:40 16:03:38 31° 94° (E) 16:07:38 437.465
CUSAT 1 07 May 16:03:07 16:08:22 48° 92° (E) 16:15:11 437.405
SWISSCUBE 07 May 16:04:16 16:08:50 46° 295° (WNW) 16:13:22 437.505
SO-50 07 May 16:18:43 16:23:39 63° 35° (NE) 16:28:36 436.795
DANDE 07 May 16:26:43 16:31:43 54° 94° (E) 16:38:25 436.750
CUTE-I 07 May 16:46:55 16:50:45 21° 52° (NE) 16:54:43 437.470
RS-15 07 May 16:59:00 17:09:51 55° 348° (NNW) 17:21:10 29.354- 29.394
Cubesat XI-IV 07 May 17:00:04 17:04:18 25° 55° (NE) 17:08:38 437.490
HO-68 07 May 17:06:32 17:08:49 12° 20° (NNE) 17:11:15 435.675
HORYU 2 07 May 17:07:39 17:11:13 22° 270° (W) 17:14:43 437.375
KKS-1 07 May 17:13:20 17:17:40 46° 294° (WNW) 17:21:58 437.445
Cosmos 2499 07 May 17:13:37 17:21:28 42° 87° (E) 17:28:57 435.465 / 435.565
ITUPSAT 1 07 May 17:15:54 17:19:03 17° 308° (NW) 17:22:05 437.325
Cosmos 2504 07 May 17:31:14 17:33:11 11° 337° (NNW) 17:34:53 435.465 / 435.565
YUBILEINY 07 May 17:35:53 17:39:24 13° 24° (NNE) 17:43:11 435.215
STARS 07 May 17:35:59 17:40:14 43° 295° (WNW) 17:44:27 437.465
AO-7 07 May 17:36:35 17:43:58 33° 268° (W) 17:51:17 29.400- 29.500
MOZHAYETS 4 07 May 17:38:06 17:42:25 39° 96° (E) 17:46:42
BEESAT 07 May 17:38:56 17:41:02 13° 313° (NW) 17:42:59 436.000
SWISSCUBE 07 May 17:44:12 17:45:41 11° 315° (NW) 17:47:01 437.505
JAS-2 07 May 17:44:33 17:50:57 29° 271° (W) 17:56:45 435.910
CUSAT 1 07 May 17:45:48 17:51:16 44° 299° (WNW) 17:58:11 437.405
GONETS M04 07 May 17:50:10 17:58:33 44° 298° (WNW) 18:06:56
SO-50 07 May 17:59:32 18:04:04 36° 237° (WSW) 18:08:32 436.795
DANDE 07 May 18:10:19 18:15:23 37° 303° (WNW) 18:21:53 436.750
CUBESAT XI-V 07 May 18:16:13 18:17:43 12° 81° (E) 18:19:27 437.345
CUTE-I 07 May 18:24:55 18:30:14 86° 76° (ENE) 18:35:36 437.470
Cubesat XI-IV 07 May 18:38:40 18:43:59 76° 254° (WSW) 18:49:21 437.490
BRITE-PL 07 May 18:41:41 18:44:34 17° 51° (NE) 18:47:42 437.365/2234.400
STRAND 1 07 May 18:47:24 18:49:02 12° 80° (E) 18:50:56 437.568
HO-68 07 May 18:48:35 18:54:18 27° 45° (NE) 19:00:07 435.675
KKS-1 07 May 18:52:19 18:53:21 11° 314° (NW) 18:54:13 437.445
GOMX 1 07 May 18:59:35 19:02:34 17° 51° (NE) 19:05:47 467.674
Cosmos 2499 07 May 19:05:56 19:14:29 61° 289° (WNW) 19:22:27 435.465 / 435.565
RS-15 07 May 19:13:21 19:24:27 59° 20° (NNE) 19:36:06 29.354- 29.394
MOZHAYETS 4 07 May 19:15:26 19:19:38 35° 296° (WNW) 19:23:46
CINEMA 3 07 May 19:18:23 19:19:54 12° 45° (NE) 19:21:36 145.822/145.860
AAUSAT CUBESAT 2 07 May 19:19:24 19:19:49 10° 49° (NE) 19:20:24 437.432
M-CUBED/EXP-1 PRIME 07 May 19:26:02 19:28:32 17° 94° (E) 19:30:59 437.505
SEEDS 07 May 19:32:04 19:34:43 17° 55° (NE) 19:37:27 437.485
YUBILEINY 07 May 19:32:20 19:40:00 33° 54° (NE) 19:47:43 435.215
CUSAT 1 07 May 19:32:32 19:36:22 16° 327° (NNW) 19:40:28 437.405
PRISM 07 May 19:33:01 19:36:29 26° 94° (E) 19:40:01 437.425
Cosmos 2491 07 May 19:43:50 19:46:17 12° 63° (ENE) 19:49:15 435.465 / 435.565
CUBESAT XI-V 07 May 19:51:31 19:56:10 68° 102° (ESE) 20:00:48 437.345
GONETS M04 07 May 19:53:09 19:58:30 16° 328° (NNW) 20:03:36
AUBIESAT-1 07 May 19:55:11 19:58:29 27° 99° (E) 20:01:36 437.475
DANDE 07 May 19:58:08 20:01:14 13° 331° (NNW) 20:04:27 436.750
CANX-2 07 May 20:01:41 20:05:31 33° 64° (ENE) 20:09:25 2200.000
CUTE-I 07 May 20:07:15 20:11:06 19° 274° (W) 20:14:49 437.470
DOVE 4 07 May 20:08:07 20:12:24 36° 63° (ENE) 20:17:00 437.250
CUTE 1.7 + AOD 2 07 May 20:08:41 20:12:35 34° 64° (ENE) 20:16:30 437.475
BRITE-PL 07 May 20:17:50 20:22:20 78° 71° (ENE) 20:27:15 437.365/2234.400
COMPASS 1 07 May 20:19:39 20:23:23 31° 64° (ENE) 20:27:10 437.405
Cubesat XI-IV 07 May 20:21:56 20:25:07 15° 277° (W) 20:28:06 437.490
STRAND 1 07 May 20:24:21 20:29:25 62° 102° (ESE) 20:34:31 437.568
Oscar 11 07 May 20:30:18 20:33:35 22° 58° (ENE) 20:36:57 145.826/435.025
FUNcube-1 07 May 20:31:59 20:34:43 16° 53° (NE) 20:37:34 145.935
HO-68 07 May 20:34:00 20:41:12 80° 68° (ENE) 20:48:27 435.675
O/OREOS (USA 219) 07 May 20:35:15 20:39:31 41° 112° (ESE) 20:43:49 437.305
GOMX 1 07 May 20:35:19 20:39:55 77° 72° (ENE) 20:44:55 467.674
DELFI C3 07 May 20:35:56 20:38:39 18° 57° (ENE) 20:41:25 145.870
HUMSAT D 07 May 20:47:15 20:48:48 12° 50° (NE) 20:50:31 437.325/437.525
AAUSAT CUBESAT 2 07 May 20:50:30 20:54:35 50° 69° (ENE) 20:58:41 437.432
CINEMA 3 07 May 20:51:30 20:56:01 46° 66° (ENE) 21:00:44 145.822/145.860
UWE-3 07 May 20:56:47 21:00:40 28° 60° (ENE) 21:04:41 435.000/436.395/437.385
CUBEBUG 2 07 May 20:58:35 21:02:43 33° 62° (ENE) 21:07:00 437.445
M-CUBED/EXP-1 PRIME 07 May 21:00:00 21:03:57 65° 296° (WNW) 21:07:34 437.505
ZACube-1 07 May 21:01:42 21:05:25 26° 59° (ENE) 21:09:15 437.345
Cosmos 2499 07 May 21:03:29 21:09:34 21° 315° (NW) 21:15:11 435.465 / 435.565
SEEDS 07 May 21:05:42 21:09:59 89° 75° (ENE) 21:14:17 437.485
PRISM 07 May 21:08:13 21:12:09 44° 293° (WNW) 21:16:03 437.425
Cosmos 2504 07 May 21:24:06 21:29:24 19° 42° (NE) 21:34:40 435.465 / 435.565
DX 1 07 May 21:26:17 21:29:53 26° 60° (ENE) 21:33:34 434.975-435.025
RS-15 07 May 21:26:22 21:37:47 80° 228° (SW) 21:49:44 29.354- 29.394
YUBILEINY 07 May 21:29:12 21:38:00 84° 261° (W) 21:46:42 435.215
CUBESAT XI-V 07 May 21:29:35 21:33:14 23° 302° (WNW) 21:36:50 437.345
AUBIESAT-1 07 May 21:29:45 21:33:28 39° 302° (WNW) 21:36:52 437.475
Cosmos 2491 07 May 21:32:47 21:40:53 45° 87° (E) 21:49:08 435.465 / 435.565
CANX-2 07 May 21:37:21 21:41:25 39° 263° (W) 21:45:29 2200.000
CUTE 1.7 + AOD 2 07 May 21:44:29 21:48:29 37° 264° (W) 21:52:30 437.475
DOVE 4 07 May 21:45:42 21:50:08 42° 265° (W) 21:54:52 437.250
UKube-1 07 May 21:49:40 21:53:39 37° 64° (ENE) 21:57:40 .
VELOX 1 07 May 21:50:17 21:53:47 24° 58° (ENE) 21:57:22 145.980
COMPASS 1 07 May 21:55:00 21:59:01 40° 263° (W) 22:03:01 437.405
50 SAT 07 May 21:56:36 21:59:53 25° 61° (ENE) 22:03:14 437.505
BRITE-PL 07 May 21:58:27 22:01:38 18° 276° (W) 22:04:52 437.365/2234.400
ESTCUBE 1 07 May 22:03:11 22:06:26 20° 56° (NE) 22:09:47 437.505/2401.250
STRAND 1 07 May 22:04:00 22:08:22 29° 302° (WNW) 22:12:40 437.568
Oscar 11 07 May 22:05:03 22:09:24 68° 257° (WSW) 22:13:46 145.826/435.025
FUNcube-1 07 May 22:05:49 22:10:22 77° 73° (ENE) 22:14:59 145.935
DELFI C3 07 May 22:09:15 22:13:19 77° 256° (WSW) 22:17:25 145.870
AISAT 07 May 22:12:52 22:16:53 35° 63° (ENE) 22:20:58 437.250
O/OREOS (USA 219) 07 May 22:14:44 22:19:01 38° 313° (NW) 22:23:17 437.305
GOMX 1 07 May 22:15:24 22:18:47 19° 275° (W) 22:22:13 467.674
HUMSAT D 07 May 22:19:30 22:23:44 57° 70° (ENE) 22:28:02 437.325/437.525
HO-68 07 May 22:23:36 22:29:46 29° 270° (W) 22:35:50 435.675
AAUSAT CUBESAT 2 07 May 22:26:58 22:30:28 24° 269° (W) 22:33:55 437.432
CINEMA 3 07 May 22:29:08 22:33:23 32° 267° (W) 22:37:47 145.822/145.860
UWE-3 07 May 22:32:27 22:36:58 55° 260° (W) 22:41:36 435.000/436.395/437.385
CUBEBUG 2 07 May 22:34:50 22:39:18 45° 263° (W) 22:43:53 437.445
M-CUBED/EXP-1 PRIME 07 May 22:36:07 22:38:04 13° 317° (NW) 22:39:52 437.505
ZACube-1 07 May 22:36:59 22:41:29 59° 259° (W) 22:46:05 437.345
SEEDS 07 May 22:44:04 22:46:28 14° 275° (W) 22:48:44 437.485
ANTELSAT 07 May 22:48:01 22:50:59 17° 85° (E) 22:54:02 437.575/2403.000
CUBEBUG 1 07 May 22:51:58 22:56:00 40° 65° (ENE) 23:00:06 437.445
DX 1 07 May 23:01:41 23:05:56 52° 259° (W) 23:10:13 434.975-435.025
CUSAT 1 07 May 23:07:36 23:09:41 11° 22° (NNE) 23:12:02 437.405
POLYITAN 1 07 May 23:13:19 23:15:34 14° 85° (E) 23:17:59 437.675
Cosmos 2504 07 May 23:17:10 23:24:58 60° 70° (ENE) 23:32:15 435.465 / 435.565
SPROUT 07 May 23:20:46 23:24:20 26° 61° (ENE) 23:27:59 437.525
QB50P1 07 May 23:23:35 23:26:21 17° 87° (E) 23:29:15 145.935-145.965
BUGSAT 1 07 May 23:25:38 23:27:27 13° 84° (E) 23:29:26 437.445
VELOX 1 07 May 23:25:41 23:30:02 61° 258° (WSW) 23:34:28 145.980
UKube-1 07 May 23:25:52 23:29:50 34° 264° (W) 23:33:49 .
YUBILEINY 07 May 23:26:58 23:33:43 25° 284° (WNW) 23:40:11 435.215
Cosmos 2491 07 May 23:29:00 23:37:39 59° 291° (WNW) 23:46:23 435.465 / 435.565
50 SAT 07 May 23:30:30 23:34:27 49° 260° (W) 23:38:26 437.505
TIGRISAT 07 May 23:30:47 23:35:06 35° 95° (E) 23:39:19 435.000
DANDE 07 May 23:32:53 23:35:40 12° 26° (NNE) 23:38:48 436.750
TISAT 1 07 May 23:34:12 23:37:46 28° 61° (ENE) 23:41:25 437.305
AIST 1 07 May 23:37:01 23:41:04 45° 94° (E) 23:45:10
BEESAT 3 07 May 23:37:13 23:39:32 15° 115° (ESE) 23:41:57 437.485
ESTCUBE 1 07 May 23:38:22 23:42:52 76° 256° (WSW) 23:47:24 437.505/2401.250
RS-15 07 May 23:39:16 23:48:50 31° 253° (WSW) 23:58:25 29.354- 29.394
ITUPSAT 1 07 May 23:39:38 23:41:01 11° 45° (NE) 23:42:35 437.325
UNISAT 6 07 May 23:41:12 23:45:42 44° 98° (E) 23:50:05 437.425
FUNcube-1 07 May 23:44:05 23:47:18 18° 274° (W) 23:50:26 145.935
Oscar 11 07 May 23:45:22 23:46:32 11° 279° (W) 23:47:28 145.826/435.025
DELFI C3 07 May 23:47:56 23:49:15 11° 277° (W) 23:50:24 145.870
AISAT 07 May 23:49:21 23:53:29 38° 263° (W) 23:57:38 437.250
QB50P2 07 May 23:54:01 23:57:52 31° 94° (E) 00:01:43 145.880/145.840
BEESAT 2 07 May 23:55:40 23:58:29 18° 117° (ESE) 00:01:25 435.950
HUMSAT D 07 May 23:56:23 23:59:51 22° 270° (W) 00:03:17 437.325/437.525
O/OREOS (USA 219) 07 May 23:57:24 23:59:44 14° 337° (NNW) 00:02:00 437.305
